カタログに戻る

FENGYUN 1C DEB

LostSSO
NORAD 31518·DEBRIS·🇨🇳 China

打ち上げ May 10, 1999 から Taiyuan Satellite Launch Center

Loading…

次のパス (今後24時間)

TLE

古いSource: Space-Track

元期: Nov 11, 2017, 16:30 UTC

1 31518U 99025BXH 17315.68762109 +.00001196 +00000-0 +71446-3 0  9991
2 31518 099.1743 281.2477 0097542 138.7924 221.9796 14.06800122536166

AllMySatでFENGYUN 1C DEBをリアルタイム追跡

Download on the App Store